Location: Unspecified
(0.0000°N, 0.0000°E)
Time: 11:08:34
(UTC+00:00)

Courier 1B Rocket - Pass Details

Date: 21 November 2019
Orbit: 921 x 1202 km, 28.2° (Epoch: 14 December)

Event Time Altitude Azimuth Distance (km) Brightness Sun altitude
Rises 23:48:45 0° 274° (W) 4,077 - -70.0°
Reaches altitude 10° 23:52:10 10° 262° (W) 3,093 - -69.9°
Maximum altitude 23:58:21 26° 208° (SSW) 2,068 - -69.8°
Drops below altitude 10° 00:04:19 10° 153° (SSE) 2,958 - -69.5°
Sets 00:07:31 0° 141° (SE) 3,867 - -69.3°
